Regional Weather Roundup
Issued by NWS

Home | Current Version | Previous Version | Graphics & Text | Print | Product List | Glossary On
Versions: 1 2 3 4 5 6 7 8 9 10 11 12 13 14 15 16 17 18 19 20 21 22 23 24 25 26 27 28 29 30 31 32 33 34 35 36 37 38 39 40 41 42 43 44 45 46 47 48 49 50
000
ASUS44 KMEG 211010
RWRTN
TENNESSEE HOURLY STATE WEATHER ROUNDUP
NATIONAL WEATHER SERVICE MEMPHIS TN
500 AM CDT SUN SEP 21 2014

TNZ002-004-019-021-049-052-054-088>092-211100-
WEST TENNESSEE

CITY           SKY/WX    TMP DP  RH WIND       PRES   REMARKS
MEMPHIS INTL   CLEAR     72  66  81 SW6       29.99S
NWS MEMPHIS      N/A     68 N/A N/A MISG        N/A
JACKSON        CLEAR     68  65  90 SW6       29.98F
DYERSBURG      CLEAR     72  59  64 W8        29.99R
UNION CITY     CLEAR     70  66  88 SW6       29.96R
PARIS          CLEAR     66  64  94 SW6       29.97S
HUNTINGDON     CLEAR     68  64  86 CALM      29.98S
LEXINGTON      CLEAR     64  64 100 CALM      29.98S
SAVANNAH       CLEAR     64  64 100 CALM      30.00R
$$

TNZ008-025-027-028-033-062-065-066-211100-
NORTH MIDDLE TENNESSEE

CITY           SKY/WX    TMP DP  RH WIND       PRES   REMARKS
NASHVILLE      PTCLDY    66  64  93 CALM      29.97F
DICKSON        CLEAR     70  64  83 SW6       29.98S
PORTLAND       CLOUDY    70  64  83 SW5       29.96F
CLARKSVILLE    PTCLDY    71  66  84 SW6       29.95S
LEBANON        CLEAR     64  61  90 CALM      29.96S
SMYRNA         CLEAR     64  63  97 CALM      29.99S
MURFREESBORO   CLEAR     67  62  84 S3        29.98S
COOKEVILLE     CLEAR     61  59  94 CALM      30.00R
GALLATIN       CLEAR     62  62 100 CALM      29.98
CROSSVILLE     CLEAR     64  58  80 SW5       30.04S
$$

TNZ061-075-076-078-094-096-097-211100-
SOUTH MIDDLE TENNESSEE

CITY           SKY/WX    TMP DP  RH WIND       PRES   REMARKS
LEWISBURG      CLEAR     69  63  81 SW5       29.99S
FAYETTEVILLE   CLEAR     63  61  94 W3        30.02R
WINCHESTER     CLEAR     59  57  94 CALM      30.02S
MCMINNVILLE    CLEAR     63  63 100 CALM      30.01S
COLUMBIA       CLEAR     64  64 100 S5        29.98S
SHELBYVILLE    CLEAR     64  63  94 CALM      30.01S
$$

TNZ017-018-042-046-047-211100-
NORTHEAST TENNESSEE

CITY           SKY/WX    TMP DP  RH WIND       PRES   REMARKS
TRI CITIES     PTCLDY    56  54  93 SE5       29.99F
ELIZABETHTON   MOSUNNY   54  54 100 CALM      30.02S
$$

TNZ012-013-036-069-073-074-211100-
CENTRAL EAST TENNESSEE

CITY           SKY/WX    TMP DP  RH WIND       PRES   REMARKS
KNOXVILLE      PTCLDY    63  60  90 SW5       29.98F
OAK RIDGE      CLEAR     64  61  90 SW3       30.01S
GATLINBURG     SUNNY     57  57 100 CALM      29.99F
MORRISTOWN     SUNNY     61  59  94 CALM      30.01R
$$

TNZ083-085-099-211100-
SOUTHEAST TENNESSEE

CITY           SKY/WX    TMP DP  RH WIND       PRES   REMARKS
CHATTANOOGA    CLEAR     64  60  87 CALM      30.01S
$$

SKY/WX REPORTED AS FAIR MEANS FEW OR NO CLOUDS BELOW
12 THOUSAND FEET.




USA.gov is the U.S. government's official web portal to all federal, state and local government web resources and services.